QPF
0.00 0.00 0.00 0.00 0.00 0.00 0.00 0.00 0.00 0.00 0.00 0.00 0.00 0.00 0.00 0.00 0.00 0.00 0.00 0.00 0.00 0.00 0.00 0.00 0.00 0.00 0.00 0.00 0.00 0.00 0.00 0.00 0.00 0.00 0.00 0.00 0.00 0.00 0.00 0.00 0.00 0.00 0.00 0.00
0.00 0.00 0.00 0.00 0.00 0.00 0.00 0.00 0.00 0.00 0.00 0.00 0.00 0.00 0.00 0.00 0.00 0.00 0.00 0.00 0.00 0.00 0.00 0.00 0.00 0.00 0.00 0.00 0.00 0.00 0.00 0.00 0.00 0.00 0.00 0.00 0.00 0.00 0.00 0.00 0.00 0.00 0.00 0.00
0.00 0.00 0.00 0.00 0.00 0.00 0.00 0.00 0.00 0.00 0.00 0.00 0.00 0.00 0.00 0.00 0.00 0.00 0.00 0.00 0.00 0.00 0.00 0.00 0.00 0.00 0.00 0.00 0.00 0.00 0.00 0.00 0.00 0.00 0.00 0.00 0.00 0.00 0.00 0.00 0.00 0.00 0.00 0.00
0.00 0.00 0.00 0.00 0.00 0.00 0.00 0.00 0.00 0.00 0.00 0.00 0.00 0.00 0.00 0.00 0.00 0.00 0.00 0.00 0.00 0.00 0.00 0.00 0.00 0.00 0.00 0.00 0.00 0.00 0.00 0.00 0.00 0.00 0.00 0.00 0.00 0.00 0.00 0.00 0.00 0.00 0.00 0.00
0.00 0.00 0.00 0.00 0.00 0.00 0.00 0.00 0.00 0.00 0.00 0.00 0.00 0.00 0.00 0.00 0.00 0.00 0.00 0.00 0.00 0.00 0.00 0.00 0.00 0.00 0.00 0.00 0.00 0.00 0.00 0.00 0.00 0.00 0.00 0.00 0.00 0.00 0.00 0.00 0.00 0.00 0.00 0.00
0.00 0.00 0.00 0.00 0.00 0.00 0.00 0.00 0.00 0.00 0.00 0.00 0.00 0.00 0.00 0.00 0.00 0.00 0.00 0.00 0.00 0.00 0.00 0.00 0.00 0.00 0.00 0.00 0.00 0.00 0.00 0.00 0.00 0.00 0.00 0.00 0.00 0.00 0.00 0.00 0.00 0.00 0.00 0.00
0.00 0.00 0.00 0.00 0.00 0.00 0.00 0.00 0.00 0.01 0.01 0.00 0.00 0.00 0.00 0.00 0.00 0.00 0.00 0.00 0.00 0.00 0.00 0.00 0.00 0.00 0.00 0.00 0.00 0.00 0.00 0.00 0.00 0.00 0.00 0.00 0.00 0.00 0.00 0.00 0.00 0.00 0.00 0.00
0.00 0.00 0.00 0.00 0.00 0.00 0.00 0.00 0.00 0.00 0.00 0.00 0.00 0.00 0.00 0.00 0.00 0.00 0.00 0.00 0.00 0.00 0.00 0.00 0.00 0.00 0.00 0.00 0.00 0.00 0.00 0.00 0.00 0.00 0.00 0.00 0.00 0.00 0.00 0.00 0.00 0.00 0.00 0.00
0.00 0.00 0.00 0.00 0.00 0.00 0.00 0.01 0.00 0.00 0.00 0.00 0.00 0.00 0.00 0.00 0.00 0.00 0.00 0.00 0.00 0.00 0.00 0.00 0.00 0.00 0.00 0.00 0.00 0.00 0.00 0.00 0.00 0.00 0.00 0.00 0.00 0.00 0.00 0.00 0.00 0.00 0.00 0.00
0.00 0.00 0.00 0.00 0.00 0.00 0.00 0.00 0.01 0.01 0.00 0.00 0.00 0.00 0.00 0.00 0.00 0.00 0.00 0.00 0.00 0.00 0.00 0.00 0.00 0.00 0.00 0.00 0.00 0.00 0.00 0.00 0.00 0.00 0.00 0.00 0.00 0.00 0.00 0.00 0.00 0.00 0.00 0.00
0.00 0.00 0.00 0.00 0.00 0.00 0.00 0.00 0.00 0.00 0.00 0.00 0.00 0.00 0.00 0.00 0.00 0.00 0.00 0.00 0.00 0.00 0.00 0.00 0.00 0.00 0.00 0.00 0.00 0.00 0.00 0.00 0.00 0.00 0.00 0.00 0.00 0.00 0.00 0.00 0.00 0.00 0.00 0.00
0.00 0.00 0.00 0.00 0.00 0.00 0.00 0.00 0.00 0.00 0.00 0.00 0.00 0.00 0.00 0.00 0.00 0.00 0.00 0.00 0.00 0.00 0.00 0.00 0.00 0.00 0.00 0.00 0.00 0.00 0.00 0.00 0.00 0.00 0.00 0.00 0.00 0.00 0.00 0.00 0.00 0.00 0.00 0.00
0.01 0.02 0.00 0.00 0.01 0.01 0.01 0.00 0.01 0.02 0.01 0.00 0.00 0.00 0.00 0.00 0.00 0.00 0.00 0.00 0.00 0.00 0.00 0.00 0.00 0.00 0.00 0.00 0.00 0.00 0.00 0.00 0.00 0.00 0.00 0.00 0.00 0.00 0.00 0.00 0.00 0.00 0.00 0.00
0.04 0.01 0.00 0.00 0.00 0.00 0.00 0.00 0.02 0.08 0.04 0.00 0.00 0.00 0.00 0.00 0.00 0.00 0.00 0.00 0.00 0.00 0.00 0.00 0.00 0.00 0.00 0.00 0.00 0.00 0.00 0.00 0.00 0.00 0.00 0.00 0.00 0.00 0.00 0.00 0.00 0.00 0.00 0.00
0.07 0.01 0.00 0.00 0.00 0.00 0.00 0.00 0.04 0.05 0.00 0.00 0.00 0.00 0.00 0.00 0.00 0.00 0.00 0.00 0.00 0.00 0.00 0.00 0.00 0.00 0.00 0.00 0.00 0.00 0.00 0.00 0.00 0.00 0.00 0.00 0.00 0.00 0.00 0.00 0.00 0.00 0.00 0.00
0.04 0.02 0.00 0.00 0.00 0.00 0.01 0.00 0.00 0.00 0.00 0.00 0.00 0.00 0.00 0.00 0.00 0.00 0.00 0.00 0.00 0.00 0.00 0.00 0.00 0.00 0.00 0.00 0.00 0.00 0.00 0.00 0.00 0.00 0.00 0.00 0.00 0.00 0.00 0.00 0.00 0.00 0.00 0.00
0.04 0.03 0.02 0.01 0.00 0.02 0.04 0.00 0.00 0.00 0.00 0.00 0.00 0.00 0.00 0.00 0.00 0.00 0.00 0.00 0.00 0.00 0.00 0.00 0.00 0.00 0.00 0.00 0.00 0.00 0.00 0.00 0.00 0.00 0.00 0.00 0.00 0.00 0.00 0.00 0.00 0.00 0.00 0.00
0.04 0.04 0.03 0.01 0.01 0.02 0.00 0.00 0.00 0.00 0.00 0.00 0.00 0.00 0.00 0.00 0.00 0.00 0.00 0.00 0.00 0.00 0.00 0.00 0.00 0.00 0.00 0.00 0.00 0.00 0.00 0.00 0.00 0.00 0.00 0.00 0.00 0.00 0.00 0.00 0.00 0.00 0.00 0.00
0.02 0.04 0.02 0.02 0.01 0.01 0.00 0.00 0.00 0.00 0.00 0.00 0.00 0.00 0.00 0.00 0.00 0.00 0.00 0.00 0.00 0.00 0.00 0.00 0.00 0.00 0.00 0.00 0.00 0.00 0.00 0.00 0.00 0.00 0.00 0.00 0.00 0.00 0.00 0.00 0.00 0.00 0.00 0.00
0.00 0.01 0.02 0.01 0.01 0.00 0.00 0.00 0.00 0.00 0.00 0.00 0.00 0.00 0.00 0.00 0.00 0.00 0.00 0.00 0.00 0.00 0.00 0.00 0.00 0.00 0.00 0.00 0.00 0.00 0.00 0.00 0.00 0.00 0.00 0.00 0.00 0.00 0.00 0.00 0.00 0.00 0.00 0.00
0.01 0.01 0.01 0.00 0.00 0.00 0.00 0.00 0.00 0.00 0.00 0.00 0.00 0.00 0.00 0.00 0.00 0.00 0.00 0.00 0.00 0.00 0.00 0.00 0.00 0.00 0.00 0.00 0.00 0.00 0.00 0.00 0.00 0.00 0.00 0.00 0.00 0.00 0.00 0.00 0.00 0.00 0.00 0.00
0.00 0.00 0.00 0.00 0.01 0.01 0.00 0.00 0.00 0.00 0.00 0.00 0.00 0.00 0.00 0.00 0.00 0.00 0.00 0.00 0.00 0.00 0.00 0.00 0.00 0.00 0.00 0.00 0.00 0.00 0.00 0.00 0.00 0.00 0.00 0.00 0.00 0.00 0.00 0.00 0.00 0.00 0.00 0.00
0.00 0.00 0.00 0.00 0.00 0.00 0.00 0.00 0.00 0.00 0.00 0.00 0.00 0.00 0.00 0.00 0.00 0.00 0.00 0.00 0.00 0.00 0.00 0.00 0.00 0.00 0.00 0.00 0.00 0.00 0.00 0.00 0.00 0.00 0.00 0.00 0.00 0.00 0.00 0.00 0.00 0.00 0.00 0.00
0.00 0.00 0.00 0.00 0.00 0.00 0.00 0.00 0.00 0.00 0.00 0.00 0.00 0.00 0.00 0.00 0.00 0.00 0.00 0.00 0.00 0.00 0.00 0.00 0.00 0.00 0.00 0.00 0.00 0.00 0.00 0.00 0.00 0.00 0.00 0.00 0.00 0.00 0.00 0.00 0.00 0.00 0.00 0.00
0.00 0.00 0.00 0.00 0.00 0.00 0.00 0.00 0.00 0.00 0.00 0.00 0.00 0.00 0.00 0.00 0.00 0.00 0.00 0.00 0.00 0.00 0.00 0.00 0.00 0.00 0.00 0.00 0.00 0.00 0.00 0.00 0.00 0.00 0.00 0.00 0.00 0.00 0.00 0.00 0.00 0.00 0.00 0.00
0.00 0.00 0.00 0.00 0.00 0.00 0.00 0.00 0.00 0.00 0.00 0.00 0.00 0.00 0.00 0.00 0.00 0.00 0.00 0.00 0.00 0.00 0.00 0.00 0.00 0.00 0.00 0.00 0.00 0.00 0.00 0.00 0.00 0.00 0.00 0.00 0.00 0.00 0.00 0.00 0.00 0.00 0.00 0.00
MSLP
1017.80 1018.26 1017.85 1018.06 1017.85 1017.92 1018.36 1018.55 1018.41 1017.96 1017.41 1017.46 1017.19 1017.03 1016.66 1016.24 1016.34 1016.29 1016.06 1015.88 1015.75 1015.63 1015.08 1015.23 1015.49 1015.91 1016.36 1016.73 1016.78 1016.79 1016.80 1016.81 1016.65 1016.49 1016.41 1016.07 1015.78 1015.44 1015.37 1015.26 1015.32 1015.43 1015.43 1015.63
1018.46 1017.63 1018.05 1018.27 1018.45 1018.54 1018.56 1018.71 1018.60 1018.28 1017.79 1017.85 1017.42 1016.96 1016.59 1016.23 1015.88 1015.69 1015.62 1015.61 1015.35 1015.20 1015.34 1015.64 1015.97 1016.36 1016.55 1016.70 1016.77 1016.99 1017.09 1017.10 1016.82 1016.61 1016.38 1016.08 1015.58 1015.09 1014.88 1014.58 1014.80 1014.95 1015.03 1015.08
1017.83 1017.64 1017.66 1018.24 1018.35 1018.67 1018.56 1018.56 1018.72 1018.62 1018.22 1017.96 1017.82 1016.64 1016.33 1015.59 1015.17 1015.04 1014.87 1014.63 1014.47 1014.57 1014.74 1015.73 1016.25 1016.55 1016.80 1016.91 1017.01 1017.21 1017.23 1017.07 1016.83 1016.56 1016.21 1015.76 1015.37 1015.07 1014.91 1014.84 1015.36 1015.71 1015.62 1015.77
1018.23 1017.71 1017.82 1017.96 1018.04 1018.23 1018.48 1018.31 1018.61 1018.99 1019.30 1019.09 1018.56 1016.33 1015.87 1015.42 1014.92 1014.67 1014.42 1013.98 1013.71 1013.75 1014.30 1015.10 1016.14 1016.78 1016.99 1017.09 1017.17 1017.31 1017.35 1017.18 1016.88 1016.62 1016.36 1016.16 1015.63 1015.45 1015.52 1015.67 1015.91 1016.21 1016.23 1016.35
1017.71 1017.52 1017.73 1017.77 1017.41 1017.94 1018.04 1018.10 1018.66 1019.17 1019.60 1019.85 1019.35 1019.08 1015.06 1014.87 1014.55 1014.25 1013.45 1013.29 1013.19 1013.30 1013.96 1014.92 1015.93 1016.65 1016.99 1017.14 1017.37 1017.57 1017.44 1017.14 1017.00 1016.79 1016.58 1016.30 1016.10 1015.94 1015.91 1016.27 1016.53 1016.64 1016.70 1016.73
1017.87 1017.33 1017.34 1017.17 1017.27 1017.37 1017.65 1018.22 1018.88 1019.43 1020.09 1019.86 1019.23 1019.24 1014.44 1014.56 1013.85 1013.31 1013.06 1012.97 1012.98 1013.53 1014.25 1015.15 1016.04 1016.74 1017.21 1017.36 1017.61 1017.71 1017.49 1017.49 1017.44 1017.29 1017.00 1016.92 1016.73 1016.62 1016.48 1016.67 1016.98 1017.18 1017.37 1017.46
1017.94 1017.46 1017.12 1016.82 1017.15 1017.25 1017.57 1018.27 1019.46 1020.30 1020.59 1019.34 1018.79 1018.79 1013.75 1013.93 1013.38 1013.06 1013.06 1012.91 1013.15 1013.72 1014.58 1015.48 1016.29 1016.91 1017.36 1017.51 1017.75 1017.74 1017.68 1017.89 1017.90 1017.80 1017.67 1017.46 1017.26 1017.16 1017.11 1017.24 1017.49 1017.62 1017.91 1017.97
1017.68 1017.55 1016.83 1016.50 1016.23 1016.29 1016.96 1017.32 1018.16 1019.42 1020.22 1019.77 1019.18 1017.34 1014.25 1013.04 1012.23 1012.23 1012.19 1012.85 1013.70 1014.68 1015.06 1015.61 1016.20 1016.76 1017.18 1017.50 1017.67 1017.75 1017.92 1018.14 1018.24 1018.34 1018.38 1018.16 1017.84 1017.81 1017.80 1017.87 1018.07 1018.23 1018.34 1018.41
1017.26 1016.83 1015.93 1016.04 1015.95 1016.20 1016.88 1017.03 1017.69 1019.04 1020.57 1020.38 1018.66 1016.40 1014.48 1013.02 1012.65 1012.22 1012.62 1013.32 1013.85 1014.45 1015.05 1015.58 1016.18 1016.57 1016.97 1017.36 1017.59 1017.74 1018.10 1018.44 1018.59 1018.61 1018.47 1018.68 1018.47 1018.44 1018.65 1018.73 1018.82 1018.92 1018.95 1019.02
1016.36 1016.67 1016.03 1015.95 1015.98 1015.96 1016.02 1016.71 1017.95 1018.76 1020.19 1020.11 1017.86 1016.61 1014.26 1013.26 1012.77 1012.48 1012.91 1013.23 1013.77 1014.56 1015.23 1015.74 1016.25 1016.71 1017.09 1017.30 1017.51 1017.77 1018.16 1018.47 1018.62 1018.66 1018.65 1018.83 1018.91 1018.87 1018.93 1019.11 1019.30 1019.34 1019.32 1019.35
1016.20 1016.24 1016.46 1016.11 1015.39 1015.23 1015.98 1016.20 1016.85 1017.61 1018.54 1018.35 1017.44 1015.15 1013.10 1012.43 1012.27 1012.54 1012.90 1013.35 1013.95 1014.59 1015.14 1015.77 1016.25 1016.52 1016.86 1017.19 1017.45 1017.77 1018.07 1018.33 1018.56 1018.67 1019.01 1019.22 1019.38 1019.44 1019.48 1019.56 1019.64 1019.63 1019.64 1019.69
1015.97 1016.58 1016.47 1015.62 1015.15 1014.90 1015.03 1015.04 1015.68 1016.54 1017.26 1017.47 1016.82 1013.20 1012.31 1011.99 1011.87 1012.20 1012.55 1012.90 1013.33 1013.89 1014.64 1015.42 1015.91 1016.35 1016.82 1017.12 1017.35 1017.51 1017.85 1018.23 1018.52 1018.73 1018.99 1019.37 1019.63 1019.73 1019.93 1020.14 1020.13 1020.03 1020.05 1020.15
1014.99 1015.86 1016.22 1015.93 1015.82 1015.48 1015.18 1015.25 1015.43 1015.83 1016.40 1016.16 1015.79 1011.26 1011.43 1011.65 1011.73 1011.97 1012.21 1012.58 1013.01 1013.83 1014.53 1015.11 1015.65 1015.93 1016.32 1016.72 1017.05 1017.31 1017.51 1017.95 1018.55 1018.86 1019.06 1019.38 1019.73 1019.96 1020.19 1020.39 1020.47 1020.39 1020.44 1020.53
1014.40 1014.81 1014.57 1013.82 1013.81 1014.46 1015.01 1014.83 1015.03 1015.43 1015.86 1014.48 1014.36 1011.55 1011.47 1011.71 1011.76 1012.05 1012.18 1012.48 1012.95 1013.64 1014.02 1014.38 1015.01 1015.22 1015.46 1015.71 1016.20 1016.89 1017.39 1017.71 1018.30 1018.81 1019.14 1019.48 1019.90 1020.15 1020.32 1020.51 1020.56 1020.56 1020.74 1020.92
1014.62 1014.28 1014.36 1013.86 1014.16 1014.15 1013.96 1014.24 1014.59 1014.83 1014.00 1014.18 1012.72 1012.38 1010.23 1011.03 1011.19 1011.48 1011.50 1011.89 1012.58 1013.07 1013.23 1013.37 1013.77 1014.07 1014.38 1014.99 1015.44 1016.08 1016.61 1017.22 1017.86 1018.49 1018.92 1019.27 1019.73 1020.11 1020.46 1020.66 1020.73 1020.81 1020.94 1021.18
1014.34 1013.89 1014.29 1014.07 1014.37 1014.58 1014.53 1014.17 1013.78 1013.61 1013.27 1013.17 1012.22 1011.37 1009.37 1009.98 1010.27 1010.54 1010.64 1011.38 1011.88 1011.74 1011.71 1011.88 1012.14 1012.48 1013.07 1013.47 1014.08 1014.96 1015.67 1016.41 1017.28 1017.92 1018.47 1019.04 1019.51 1020.04 1020.39 1020.61 1020.81 1021.02 1021.22 1021.44
1014.09 1014.05 1014.61 1013.81 1014.34 1014.59 1014.38 1013.22 1013.05 1012.85 1012.32 1011.79 1011.74 1009.96 1009.56 1008.96 1008.99 1008.94 1009.55 1010.23 1010.20 1010.06 1010.45 1010.51 1010.55 1010.84 1011.28 1011.85 1012.40 1013.35 1014.45 1015.80 1016.72 1017.41 1017.97 1018.56 1019.18 1019.73 1020.23 1020.66 1020.90 1021.09 1021.41 1021.66
1013.44 1013.83 1014.48 1014.14 1013.98 1012.90 1011.68 1011.29 1011.40 1011.24 1010.93 1010.76 1010.68 1010.00 1008.68 1008.15 1007.98 1007.71 1008.67 1008.98 1009.09 1009.39 1009.05 1009.00 1008.95 1009.18 1009.54 1010.12 1011.25 1012.47 1013.67 1014.72 1015.77 1016.69 1017.42 1018.07 1018.68 1019.35 1019.93 1020.41 1020.82 1021.28 1021.59 1021.71
1013.62 1013.91 1013.89 1013.89 1013.19 1012.21 1011.73 1010.41 1010.42 1010.43 1010.00 1010.32 1009.86 1008.64 1008.34 1008.03 1008.03 1007.91 1007.33 1007.95 1008.30 1008.26 1008.14 1007.97 1007.84 1008.04 1008.55 1009.34 1010.33 1011.69 1012.99 1013.95 1015.02 1015.75 1016.42 1017.15 1017.81 1018.49 1019.12 1019.71 1020.38 1020.89 1021.37 1022.05
1014.02 1013.91 1014.05 1014.07 1013.10 1012.06 1010.50 1008.78 1009.12 1010.04 1010.31 1008.51 1008.43 1009.13 1008.87 1008.75 1009.06 1007.43 1006.68 1007.53 1007.79 1007.86 1007.74 1007.62 1007.47 1007.83 1008.32 1008.99 1009.84 1010.94 1012.02 1012.91 1013.55 1014.29 1015.25 1016.25 1017.10 1017.91 1018.64 1019.30 1019.90 1020.61 1020.91 1021.44
1014.40 1014.14 1013.51 1012.81 1012.38 1011.47 1009.35 1009.42 1009.71 1010.72 1008.72 1008.31 1008.25 1008.35 1008.62 1009.03 1008.37 1007.52 1008.09 1008.31 1008.63 1008.95 1008.92 1008.84 1008.53 1008.53 1008.79 1009.23 1009.63 1010.59 1011.28 1011.58 1012.62 1013.79 1014.78 1015.85 1016.73 1017.45 1018.23 1018.99 1019.58 1020.30 1020.63 1021.15
1013.50 1013.70 1013.08 1012.90 1012.41 1011.20 1009.04 1009.82 1009.92 1008.68 1008.49 1008.48 1008.72 1008.96 1009.16 1008.76 1008.67 1008.77 1008.80 1008.87 1009.09 1009.50 1009.63 1009.85 1009.70 1009.70 1009.83 1010.22 1010.79 1011.39 1011.64 1012.14 1012.90 1013.72 1014.70 1015.82 1016.76 1017.33 1018.28 1019.11 1019.80 1020.08 1020.49 1020.82
1013.75 1012.41 1012.47 1011.97 1010.37 1009.55 1009.36 1009.31 1009.22 1009.43 1009.82 1009.50 1009.48 1009.26 1009.43 1009.59 1009.44 1009.15 1009.22 1009.33 1009.52 1009.79 1010.23 1010.44 1010.54 1010.75 1011.23 1011.19 1011.13 1011.25 1012.19 1012.84 1013.36 1014.05 1015.33 1016.19 1016.89 1017.47 1018.26 1018.72 1019.40 1019.93 1020.23 1020.80
1012.87 1012.24 1012.10 1011.71 1009.47 1009.75 1009.37 1009.28 1009.40 1009.53 1009.59 1009.45 1009.54 1009.62 1009.82 1009.96 1009.78 1009.75 1010.08 1010.05 1010.26 1010.48 1010.61 1010.92 1011.17 1011.41 1011.71 1011.86 1012.23 1012.71 1013.22 1013.38 1013.65 1014.47 1014.67 1016.09 1017.10 1017.63 1018.05 1018.58 1018.82 1019.50 1020.28 1020.91
1012.75 1012.44 1011.74 1010.40 1009.31 1009.91 1009.23 1009.47 1009.50 1009.63 1010.03 1010.22 1010.39 1010.66 1010.60 1010.80 1010.75 1011.11 1010.75 1010.83 1010.80 1010.80 1011.03 1011.39 1011.63 1011.71 1011.98 1012.28 1012.79 1013.20 1013.68 1014.12 1014.66 1015.11 1015.29 1015.06 1016.48 1017.42 1018.06 1018.36 1018.69 1019.28 1020.25 1020.71
1011.79 1010.67 1011.38 1009.69 1009.94 1010.17 1009.48 1009.69 1010.03 1010.60 1010.84 1011.21 1011.60 1011.57 1011.79 1012.03 1012.06 1011.98 1011.53 1011.16 1010.95 1011.18 1011.40 1011.72 1011.95 1012.27 1012.63 1012.78 1012.60 1012.92 1013.58 1014.46 1014.77 1015.25 1016.03 1016.07 1016.39 1017.34 1018.06 1018.78 1019.26 1019.63 1020.37 1020.87
Thickness
5592 5589 5598 5605 5615 5620 5615 5613 5617 5628 5643 5638 5637 5640 5657 5670 5664 5668 5676 5677 5682 5687 5696 5693 5694 5695 5692 5691 5691 5690 5690 5691 5692 5693 5693 5696 5697 5699 5697 5694 5690 5687 5685 5681
5571 5585 5593 5599 5601 5603 5605 5603 5606 5618 5627 5627 5630 5633 5644 5655 5661 5667 5671 5670 5675 5684 5686 5683 5683 5685 5685 5684 5684 5682 5681 5680 5682 5683 5684 5686 5689 5693 5693 5693 5688 5683 5679 5675
5567 5581 5589 5587 5589 5588 5594 5598 5598 5604 5614 5617 5616 5625 5636 5652 5658 5663 5668 5675 5680 5682 5688 5676 5673 5675 5674 5674 5673 5671 5671 5672 5673 5674 5677 5680 5682 5683 5683 5682 5675 5669 5666 5661
5556 5575 5576 5576 5580 5584 5580 5594 5595 5592 5589 5579 5603 5605 5630 5644 5651 5655 5659 5670 5678 5683 5682 5676 5667 5663 5663 5663 5663 5661 5661 5661 5663 5665 5666 5667 5671 5671 5668 5664 5660 5655 5652 5647
5555 5563 5564 5569 5582 5579 5579 5587 5584 5581 5573 5572 5583 5569 5617 5638 5640 5650 5663 5667 5669 5675 5673 5668 5660 5655 5654 5653 5651 5649 5649 5650 5651 5652 5654 5655 5655 5654 5653 5647 5642 5639 5635 5631
5543 5559 5558 5568 5574 5577 5578 5575 5573 5566 5561 5557 5579 5572 5608 5627 5645 5657 5656 5660 5665 5662 5657 5653 5646 5642 5639 5638 5637 5636 5637 5636 5636 5637 5638 5637 5638 5637 5636 5632 5627 5623 5618 5613
5537 5546 5558 5564 5561 5566 5565 5561 5531 5539 5537 5556 5572 5570 5629 5621 5635 5642 5646 5651 5651 5646 5641 5636 5632 5627 5625 5624 5621 5622 5622 5620 5620 5619 5618 5619 5619 5619 5618 5615 5610 5606 5600 5597
5527 5528 5547 5558 5562 5563 5562 5561 5545 5538 5536 5542 5552 5562 5600 5617 5635 5641 5644 5642 5630 5626 5626 5622 5619 5615 5612 5611 5609 5608 5606 5605 5604 5602 5600 5601 5602 5600 5598 5595 5591 5587 5583 5579
5515 5522 5547 5550 5556 5558 5546 5543 5556 5538 5481 5508 5539 5566 5590 5608 5615 5625 5625 5622 5621 5618 5612 5610 5606 5602 5599 5597 5594 5593 5591 5588 5586 5586 5586 5581 5581 5580 5576 5572 5569 5565 5562 5559
5523 5510 5534 5541 5544 5544 5541 5549 5531 5514 5508 5476 5532 5545 5577 5600 5604 5607 5614 5611 5608 5602 5597 5594 5591 5586 5583 5582 5581 5579 5577 5573 5571 5571 5569 5565 5563 5560 5557 5554 5550 5546 5544 5540
5518 5519 5519 5525 5532 5541 5535 5531 5535 5534 5516 5517 5514 5545 5577 5598 5599 5598 5593 5598 5597 5590 5584 5577 5575 5572 5570 5568 5566 5563 5562 5560 5556 5554 5550 5547 5543 5541 5538 5534 5531 5528 5526 5522
5511 5498 5502 5524 5533 5538 5538 5539 5536 5523 5502 5505 5523 5556 5587 5586 5590 5584 5586 5584 5580 5579 5569 5563 5559 5555 5553 5552 5551 5550 5546 5542 5540 5538 5535 5531 5526 5522 5517 5513 5511 5510 5506 5503
5513 5492 5490 5496 5512 5512 5516 5529 5531 5529 5503 5522 5522 5566 5596 5581 5578 5570 5571 5572 5568 5557 5547 5545 5543 5544 5541 5538 5535 5533 5531 5529 5523 5520 5517 5513 5508 5503 5500 5497 5493 5491 5488 5484
5507 5491 5502 5523 5527 5517 5510 5518 5522 5517 5506 5525 5517 5555 5568 5561 5560 5560 5559 5559 5553 5542 5538 5537 5535 5533 5530 5528 5525 5518 5514 5513 5507 5502 5499 5494 5490 5486 5483 5479 5477 5474 5469 5465
5494 5493 5506 5515 5513 5512 5516 5515 5513 5508 5522 5508 5535 5525 5564 5559 5554 5548 5551 5549 5539 5528 5529 5532 5529 5523 5520 5516 5514 5509 5504 5496 5491 5487 5484 5480 5475 5470 5465 5461 5458 5455 5451 5447
5488 5485 5487 5492 5499 5493 5493 5500 5510 5513 5517 5512 5521 5522 5565 5557 5546 5537 5546 5536 5524 5527 5531 5527 5523 5524 5519 5514 5508 5499 5493 5485 5478 5474 5471 5464 5459 5453 5449 5445 5441 5437 5434 5430
5485 5486 5473 5495 5478 5477 5474 5491 5500 5506 5513 5518 5504 5532 5542 5546 5549 5547 5536 5523 5527 5535 5524 5522 5524 5520 5517 5511 5506 5497 5485 5472 5465 5460 5455 5450 5445 5439 5433 5428 5426 5423 5418 5414
5478 5478 5470 5476 5467 5472 5501 5513 5514 5511 5514 5515 5510 5518 5534 5539 5542 5544 5526 5521 5523 5517 5521 5521 5522 5521 5519 5510 5498 5487 5475 5465 5456 5447 5442 5437 5432 5427 5421 5416 5412 5406 5402 5400
5470 5472 5476 5478 5467 5485 5495 5515 5500 5496 5504 5506 5506 5521 5522 5523 5517 5512 5531 5516 5509 5508 5509 5514 5519 5515 5509 5498 5489 5475 5463 5454 5447 5442 5436 5430 5424 5417 5412 5406 5400 5394 5389 5383
5459 5459 5463 5440 5461 5464 5499 5531 5513 5492 5463 5520 5513 5499 5501 5502 5479 5510 5529 5508 5500 5499 5500 5501 5501 5495 5489 5483 5474 5466 5457 5449 5445 5439 5429 5420 5413 5406 5400 5395 5389 5382 5379 5373
5444 5449 5463 5468 5466 5455 5496 5497 5487 5446 5495 5503 5497 5493 5488 5478 5491 5500 5482 5482 5479 5470 5465 5463 5471 5471 5470 5463 5461 5455 5450 5448 5439 5428 5418 5409 5401 5395 5389 5382 5377 5370 5367 5361
5454 5457 5462 5454 5452 5456 5481 5475 5468 5486 5482 5485 5479 5470 5462 5458 5459 5459 5454 5457 5457 5451 5448 5442 5445 5444 5442 5440 5438 5434 5432 5428 5421 5413 5405 5395 5387 5383 5374 5367 5360 5358 5353 5349
5425 5444 5429 5445 5454 5463 5463 5466 5460 5447 5443 5448 5444 5441 5436 5432 5435 5437 5435 5434 5435 5431 5425 5422 5424 5423 5420 5419 5421 5421 5411 5406 5400 5395 5385 5376 5372 5368 5360 5355 5349 5344 5339 5334
5438 5432 5421 5434 5463 5448 5447 5444 5440 5437 5432 5428 5420 5413 5408 5406 5409 5408 5400 5404 5403 5403 5403 5400 5398 5398 5397 5397 5397 5392 5387 5384 5380 5375 5374 5363 5354 5349 5345 5340 5337 5330 5322 5316
5415 5421 5417 5429 5455 5432 5442 5429 5428 5426 5412 5401 5391 5384 5383 5378 5378 5373 5380 5380 5380 5380 5377 5375 5376 5377 5375 5371 5368 5366 5363 5359 5356 5353 5352 5353 5340 5331 5325 5322 5318 5312 5303 5299
5421 5431 5417 5437 5432 5425 5442 5428 5413 5403 5397 5384 5371 5365 5359 5353 5350 5349 5353 5357 5359 5355 5354 5354 5352 5349 5344 5343 5345 5343 5341 5335 5335 5333 5327 5326 5322 5312 5306 5299 5295 5291 5284 5278